Location: Presov
(49.0000°N, 21.2500°E)
Time: 10:11:46
(UTC+02:00)

A-11 Canister half - Pass Details

Date: 23 April 2021
Orbit: 1526 x 1683 km, 47.3° (Epoch: 11 May)

Event Time Altitude Azimuth Distance (km) Brightness Sun altitude
Rises 20:27:42 0° 287° (WNW) 4,931 13.6 -8.0°
Reaches altitude 10° 20:30:57 10° 283° (WNW) 3,947 12.6 -8.5°
Maximum altitude 20:40:39 53° 211° (SSW) 1,993 9.6 -9.8°
Enters shadow 20:49:49 12° 139° (SE) 3,772 10.4 -11.1°
